星链-11492 (STARLINK-11492)

导读

STARLINK-11492是美国SpaceX公司星链(Starlink)星座的一员,于2024年12月5日发射入轨。星链项目旨在构建低轨卫星互联网星座,为全球偏远、网络覆盖薄弱区域提供高速宽带服务,该卫星继承星链设计,依托低轨部署降低通信延迟,助力SpaceX推进全球无缝网络覆盖目标,相关轨道参数也开放给学术仿真与轨道研究使用。

基本信息
目录编号:
62224
目录名称:
STARLINK-11492
国际标识:
2024-231G
轨道中心:
EARTH
卫星名称:
星链-11492
卫星全名:
星链-11492 (STARLINK-11492)
卫星状态:
在轨 (已飞行645 天)
发射日期:
2024-12-05 UTC
国别 :
美国 (US)
星等 :
--
轨道信息
数据来源 国际轨道数据
星历时间: 2026-09-10T19:48:59+0800
16小时前
查看轨道信息
半长轴: 6737.738km
偏心率: 0.0001452
轨道倾角: 53.156°
近地点辐角 140.038°
升交点赤经 270.501°
平近点角 220.075°
近地点: 358.622km
远地点: 360.58km
周期: 91.734分钟
每日圈数: 15.697541
详细信息
固有亮度:
5
最大亮度:
2.5
卫星平台:
Starlink V1.0
覆盖范围:
全球
运营商:
太空探索技术公司
运营商所在国:
美国
制造商(研发单位):
太空探索技术公司
制造商所在国:
美国
使用方式:
暂无
卫星简介
Starlink 计划是 SpaceX 推出的全球卫星互联网项目,通过发射低轨道卫星,为全球尤其是偏远地区提供高速、低延迟的互联网服务。自 2019 年起,Starlink 已部署数千颗卫星,旨在缩小全球数字鸿沟,推动互联网普及。该项目还为军事、航空等行业提供通信支持,带来广泛经济效益。
2D轨道图
3D轨道图
轨道高度分析图
轨道倾角分析图
轨道综合分析图
查看轨道综合分析图
与全量物体交会距离演化趋势
与全量物体交会风险概率演化趋势